Location: ???????
(55.4362°N, 38.1183°E)
Time: 03:18:53
(UTC+00:00)

Cosmos 1302 Rocket - Pass Details

Date: 17 June 2021
Orbit: 757 x 775 km, 74.0° (Epoch: 26 July)

Event Time Altitude Azimuth Distance (km) Brightness Sun altitude
Exits shadow 19:24:38 - 182° (S) 2,836 6.4 -6.8°
Reaches altitude 10° 19:26:03 10° 178° (S) 2,310 5.9 -6.9°
Maximum altitude 19:31:00 44° 107° (ESE) 1,052 4.4 -7.3°
Drops below altitude 10° 19:35:58 10° 37° (NE) 2,315 6.9 -7.6°
Sets 19:38:25 0° 31° (NNE) 3,242 7.8 -7.7°
